User: anonymous   Login
Location: Middlebury
(44.0153°N, 73.1678°W)
Time: 10:44:24
(UTC-04:00)
Language:

CAS-4B - Orbit

View from above orbital plane
View from above orbital plane
View from above satellite
View from above satellite

Ground track
Ground track

The orbit data is extracted from the following two-line orbital elements,

1 42759U 17034B   24170.22282152  .00012860  00000-0  46491-3 0  9994
2 42759  43.0155 220.7061 0012216 350.2035   9.8578 15.28300775387569
Epoch (UTC): 18 June 2024 05:20:51
Eccentricity: 0.0012216
inclination: 43.0155°
perigee height: 472 km
apogee height: 489 km
right ascension of ascending node: 220.7061°
argument of perigee: 350.2035°
revolutions per day: 15.28300775
mean anomaly at epoch: 9.8578°
orbit number at epoch: 38756

The dashed part of the orbit path shows where the satellite is in the earth's shadow,  

DLR